Wind_Speed
30 28 26 25 23 23 21 20 19 20 19 19 20 19 18 19 19 20 20 19 15 14 11 8 8 9 7 6 10 5 2 4 7 14 14 12 11 10 10 10 7 12 4 6 13 22 16
32 31 28 26 25 24 23 21 19 19 19 19 19 18 17 17 18 18 18 16 12 11 8 6 8 9 7 8 7 5 3 7 3 12 14 15 6 12 4 4 10 6 5 8 8 12 7
30 32 30 29 27 25 24 22 19 19 19 20 19 17 16 16 17 17 17 13 10 8 7 6 8 7 11 14 3 5 9 11 7 8 11 14 14 8 3 2 4 14 10 6 9 14 8
40 34 31 31 29 27 25 23 21 19 19 20 18 16 15 15 15 15 13 10 8 7 6 7 6 6 9 5 9 9 9 6 3 7 11 5 9 11 5 2 6 7 14 9 9 15 5
42 40 31 32 31 29 27 24 22 20 20 19 17 16 14 14 13 13 10 8 6 5 5 7 5 5 9 5 7 6 4 3 3 3 9 5 10 6 6 10 9 9 9 11 8 2 8
48 39 37 31 33 30 29 25 23 21 21 19 17 15 14 12 12 10 6 5 4 4 6 6 8 5 6 2 4 5 3 2 2 6 3 4 7 5 6 9 8 7 8 9 10 5 10
33 44 39 35 32 32 30 27 24 22 21 19 16 15 13 11 10 7 6 5 2 3 11 9 3 5 2 5 7 5 3 2 2 6 10 9 7 6 13 4 4 4 6 12 8 4 7
33 35 44 38 33 33 31 29 26 22 22 19 17 14 13 11 9 8 11 7 5 1 7 17 18 14 13 10 4 6 4 4 1 1 3 6 3 5 5 4 3 5 7 7 5 4 5
36 34 40 41 41 32 32 29 27 24 22 20 17 14 13 11 9 12 17 18 4 4 6 4 11 9 5 6 4 8 3 3 3 2 4 5 6 5 7 8 7 4 3 10 5 7 2
36 35 36 42 41 38 33 30 27 25 22 20 17 15 13 10 8 14 18 14 7 4 4 7 6 6 6 4 5 3 4 2 1 6 3 4 3 4 6 6 3 5 2 5 11 10 7
38 35 35 38 36 40 37 32 28 26 23 21 18 16 15 13 7 13 8 12 5 4 5 10 7 6 7 6 4 3 6 3 6 4 3 4 5 5 4 3 1 4 4 4 3 4 5
39 39 37 38 41 38 35 34 29 26 24 23 19 18 17 18 19 14 8 8 7 5 5 8 8 9 9 5 3 4 3 4 5 2 2 5 3 2 3 6 2 10 8 6 2 3 8
41 38 38 38 43 40 37 36 30 27 26 24 20 20 21 21 14 13 10 9 6 6 3 7 10 11 12 6 6 5 8 9 7 9 9 6 3 4 3 9 6 6 6 3 3 4 6
43 39 39 36 37 46 38 40 31 28 28 25 21 22 23 27 17 12 14 7 9 6 8 2 7 13 12 9 5 4 8 8 3 6 9 9 7 5 1 3 2 2 3 3 4 3 1
42 40 37 38 35 48 36 41 33 30 29 25 22 23 25 29 26 11 11 11 8 6 7 9 10 15 8 7 4 7 5 7 3 4 7 6 4 4 3 2 3 5 4 3 2 1 3
41 38 38 37 33 36 37 42 35 32 31 26 24 23 28 27 27 11 7 14 9 4 5 10 13 13 14 13 9 9 9 4 4 2 3 4 4 2 5 2 7 4 9 3 3 3 4
35 35 37 36 33 33 41 44 38 36 32 27 20 13 16 25 18 14 10 14 7 7 7 11 13 8 12 9 9 10 9 4 4 4 1 5 3 6 4 7 6 4 4 1 0 2 2
34 34 36 34 34 32 45 44 42 40 34 31 20 9 19 22 12 13 12 12 6 8 7 7 7 7 12 11 8 9 10 3 5 5 5 2 1 4 5 3 1 2 5 8 4 4 1
36 35 35 34 33 34 38 36 47 42 40 39 19 9 20 30 11 8 9 7 7 6 8 8 8 5 6 10 5 5 6 2 3 5 6 6 3 4 4 4 4 7 9 5 4 1 6
37 35 36 35 33 37 50 32 44 41 41 30 25 7 9 15 17 16 13 15 8 3 5 5 5 4 8 6 1 7 7 3 3 2 3 4 3 7 10 2 0 6 11 11 11 4 5
37 37 35 34 33 38 46 38 43 41 41 31 19 10 16 12 16 12 16 14 14 6 4 8 5 8 8 5 6 6 6 5 4 6 3 3 6 4 2 0 3 4 8 13 15 14 8
35 37 35 33 35 37 46 34 43 41 42 36 15 10 14 26 23 13 12 12 17 6 6 7 8 10 7 6 8 10 10 7 5 7 5 2 3 3 3 2 2 7 8 10 15 16 15
38 37 33 35 36 44 38 38 44 45 53 22 16 16 27 9 14 12 11 12 14 11 1 3 11 9 6 4 5 8 7 8 6 7 6 4 5 4 2 2 3 6 15 18 13 12 15
36 34 32 36 46 46 41 42 46 47 58 21 18 19 16 7 12 13 12 10 12 9 7 5 4 4 6 20 22 18 18 15 11 10 3 6 5 1 1 2 3 1 1 3 12 16 15
34 36 33 45 51 38 39 44 45 47 56 30 15 17 13 4 16 11 13 7 11 7 5 7 4 5 22 5 4 4 2 2 5 7 5 1 4 3 2 4 6 12 3 3 3 6 4
33 31 38 53 35 37 42 43 45 48 50 25 17 15 18 12 10 19 13 14 7 6 5 5 9 20 5 2 2 4 4 4 5 4 3 5 3 2 3 3 4 3 4 1 2 5 3
31 37 38 34 38 40 41 42 44 51 51 22 17 15 16 7 8 14 15 13 8 6 5 8 11 3 2 2 2 2 3 1 5 5 4 2 1 4 3 4 6 1 1 3 2 3 1
40 40 35 36 37 39 39 41 45 52 48 23 22 18 15 7 10 10 11 10 9 10 6 12 7 2 2 2 2 3 2 4 3 2 4 5 6 3 3 3 4 6 6 3 4 4 3
33 34 36 36 37 37 38 42 47 53 33 23 22 17 13 10 7 11 12 15 17 14 11 18 1 8 8 3 1 3 3 1 1 3 3 3 3 1 6 1 3 7 7 3 5 9 9
Wind_Direction
263 264 267 271 274 276 279 276 266 260 264 270 274 281 289 298 304 306 306 303 307 299 295 291 281 271 280 269 256 232 28 47 200 212 204 207 214 214 213 207 192 234 166 194 157 169 192
256 261 264 268 270 273 277 282 275 261 261 267 272 281 290 296 301 304 303 300 302 291 282 276 268 265 270 254 244 233 278 345 252 218 211 210 223 227 285 219 215 182 139 186 233 161 164
247 255 257 262 265 268 271 275 273 264 262 264 271 278 288 295 299 301 299 297 290 278 267 259 253 264 267 244 246 234 294 308 284 241 215 217 218 201 218 194 148 130 124 145 168 186 175
242 245 256 257 261 263 267 270 270 260 257 262 268 275 283 291 296 297 293 289 277 258 252 245 246 273 258 254 244 270 294 300 314 211 210 217 215 231 248 163 160 179 169 149 157 184 153
241 245 251 254 256 260 261 265 266 261 256 258 265 272 279 286 291 291 285 274 253 242 229 230 257 255 266 249 254 270 273 242 344 179 187 208 165 202 169 193 169 195 168 138 137 355 152
245 241 246 254 250 256 259 259 261 260 254 257 260 267 274 279 284 278 265 245 234 217 216 244 249 262 255 206 267 236 259 175 185 142 105 163 196 202 193 197 197 152 155 159 153 126 186
257 242 242 245 252 250 255 257 256 256 252 253 255 263 268 272 272 256 216 166 204 229 227 217 264 273 294 312 268 239 209 214 179 180 219 189 216 195 182 209 47 154 148 147 130 141 153
256 252 237 240 247 244 248 252 254 252 251 249 250 255 258 261 251 225 201 209 217 182 265 244 250 269 265 295 276 223 216 229 251 221 276 197 146 91 125 136 128 168 158 132 121 139 229
251 253 243 240 240 247 243 247 250 248 246 243 245 249 248 248 236 218 209 201 192 266 259 215 230 249 254 211 237 208 204 186 225 192 270 267 86 133 134 127 126 104 180 163 153 143 119
246 252 246 238 239 243 241 243 246 244 243 238 239 241 239 229 227 222 218 191 257 274 253 160 209 234 201 203 216 199 192 216 134 174 113 74 85 135 131 121 276 151 86 136 147 190 197
243 244 246 234 237 237 238 236 238 242 239 233 233 233 228 203 201 205 207 201 224 200 206 162 173 177 169 199 140 167 191 208 216 160 254 110 149 140 153 66 322 109 163 137 182 228 245
243 240 241 237 229 233 230 227 232 236 233 228 227 225 217 207 213 198 191 175 182 222 227 164 163 173 168 185 151 149 159 112 112 120 144 103 87 13 79 73 179 143 139 116 163 254 250
242 240 238 237 228 228 225 219 222 231 229 223 220 223 214 206 214 207 189 164 207 226 130 168 176 178 186 168 164 198 187 170 187 168 171 154 107 112 164 128 153 219 200 232 231 220 254
237 238 236 237 236 226 222 215 215 225 223 218 216 218 214 209 200 190 186 209 218 187 194 146 170 177 190 170 180 166 178 180 188 246 175 182 173 179 130 296 196 154 268 236 262 233 275
235 234 233 235 234 224 225 213 207 219 218 210 213 213 214 208 204 200 194 214 204 183 178 174 161 176 170 173 213 191 210 180 175 227 208 179 130 120 46 137 292 141 218 36 127 79 274
231 232 233 232 234 225 222 208 206 213 210 203 205 206 216 208 201 217 225 228 209 162 158 190 180 197 185 183 189 204 194 157 157 226 285 155 142 170 133 145 62 283 129 186 216 237 246
228 231 231 229 233 225 220 208 204 209 200 195 189 186 206 204 203 207 217 211 207 186 187 194 187 172 195 176 206 195 187 146 203 153 215 162 236 152 185 212 189 153 193 195 241 281 282
226 228 230 225 228 224 216 204 201 205 190 188 179 196 184 189 183 209 218 211 200 165 183 200 198 167 189 181 176 193 199 235 165 176 182 109 141 183 194 123 299 261 219 204 233 182 216
226 228 228 224 228 222 207 220 203 201 188 176 182 153 169 174 197 205 210 218 208 169 184 181 172 178 175 173 173 193 186 94 182 200 167 170 198 187 180 180 185 225 198 202 129 138 211
228 226 224 221 227 222 214 216 203 194 188 175 177 164 141 180 209 206 198 205 180 203 155 172 144 140 145 161 134 171 164 139 144 156 132 172 186 239 242 276 199 201 203 201 206 207 228
225 223 221 221 225 215 218 212 203 193 186 183 195 185 169 177 199 211 196 194 189 165 199 188 153 191 167 146 161 167 163 146 143 148 137 225 232 214 218 138 241 257 226 204 215 234 224
223 221 219 219 217 224 203 212 198 189 184 199 190 164 170 162 182 197 189 206 191 151 185 175 188 164 175 170 197 187 171 190 176 172 168 165 201 184 225 224 276 266 244 233 233 246 250
220 217 216 222 217 213 200 213 192 188 185 191 198 161 163 161 177 182 192 185 199 148 72 70 156 141 140 99 82 77 99 98 126 165 163 171 156 161 240 356 277 276 241 227 228 228 236
214 216 217 210 205 201 210 197 192 192 188 186 190 163 157 158 188 192 177 184 180 177 137 101 130 116 121 118 101 85 84 84 86 71 80 141 132 77 149 226 224 339 161 283 251 255 248
210 215 213 191 196 203 196 189 191 191 183 191 191 170 160 127 186 180 179 150 130 115 99 114 63 111 142 131 112 116 75 72 72 54 59 109 136 118 179 221 314 280 198 231 217 293 276
211 193 177 188 202 184 186 188 189 190 180 197 194 180 172 128 204 177 164 172 153 146 123 85 102 142 134 80 127 155 182 183 166 139 69 80 66 229 152 221 250 48 69 166 225 274 1
189 173 190 175 176 180 185 189 187 184 182 198 190 174 165 116 152 161 181 178 154 149 112 130 152 169 121 108 111 161 167 343 173 179 174 118 48 208 177 238 279 291 219 161 247 18 19
164 163 163 171 178 181 185 185 181 178 181 192 191 185 173 114 146 167 165 157 152 173 151 145 136 167 127 153 165 168 147 180 194 140 183 180 164 182 142 202 269 159 146 230 10 337 308
157 164 170 174 178 180 181 180 177 175 176 182 186 172 160 140 140 167 169 176 181 172 142 166 118 151 165 120 140 113 136 150 160 194 193 221 229 215 216 223 111 192 276 308 323 298 300
Height
1521 1522 1523 1525 1526 1526 1526 1525 1525 1528 1529 1530 1530 1529 1528 1527 1526 1524 1523 1521 1518 1519 1517 1515 1515 1515 1515 1514 1508 1506 1506 1506 1506 1508 1509 1511 1512 1511 1506 1506 1510 1510 1510 1510 1508 1511 1515
1514 1516 1518 1520 1521 1522 1522 1523 1523 1523 1524 1526 1526 1525 1525 1524 1522 1521 1520 1519 1516 1516 1515 1513 1514 1514 1515 1512 1506 1506 1505 1505 1505 1506 1508 1510 1510 1510 1508 1507 1507 1506 1510 1511 1510 1510 1514
1506 1509 1512 1514 1515 1517 1517 1518 1519 1520 1521 1521 1523 1522 1522 1520 1519 1518 1517 1516 1514 1514 1513 1512 1513 1514 1513 1506 1505 1504 1504 1504 1503 1504 1506 1507 1509 1510 1508 1505 1507 1509 1512 1514 1514 1513 1515
1500 1502 1505 1508 1510 1511 1513 1514 1515 1516 1517 1518 1519 1519 1518 1517 1516 1515 1514 1513 1513 1512 1511 1512 1512 1513 1508 1503 1503 1503 1503 1502 1502 1503 1505 1505 1507 1509 1509 1508 1507 1506 1507 1509 1513 1512 1514
1490 1495 1497 1500 1503 1506 1508 1510 1510 1512 1513 1513 1515 1516 1514 1513 1512 1513 1511 1512 1512 1512 1512 1513 1513 1513 1506 1502 1502 1502 1502 1502 1501 1501 1502 1504 1505 1506 1507 1505 1504 1503 1505 1504 1512 1511 1511
1481 1486 1490 1492 1496 1500 1502 1504 1506 1508 1509 1510 1511 1513 1511 1510 1510 1510 1510 1512 1512 1512 1513 1512 1512 1513 1503 1502 1501 1501 1501 1501 1501 1500 1502 1504 1504 1499 1499 1498 1503 1501 1503 1504 1506 1511 1508
1473 1476 1482 1486 1489 1493 1497 1499 1501 1503 1505 1507 1508 1509 1509 1508 1508 1508 1510 1512 1516 1515 1511 1507 1507 1503 1500 1500 1499 1500 1500 1500 1500 1501 1499 1501 1496 1494 1491 1494 1493 1493 1497 1502 1506 1513 1510
1465 1468 1473 1477 1482 1486 1490 1493 1497 1498 1501 1503 1505 1505 1505 1506 1506 1507 1509 1510 1509 1510 1507 1503 1504 1502 1500 1500 1500 1499 1500 1501 1497 1497 1497 1496 1495 1499 1499 1498 1496 1497 1500 1504 1512 1514 1511
1456 1460 1463 1469 1474 1479 1483 1487 1491 1494 1496 1498 1501 1503 1502 1503 1504 1505 1505 1506 1508 1508 1506 1501 1501 1501 1500 1500 1498 1497 1500 1499 1497 1495 1495 1491 1500 1502 1498 1498 1499 1502 1501 1507 1505 1513 1513
1447 1452 1455 1460 1466 1470 1476 1482 1486 1489 1492 1495 1497 1499 1500 1501 1505 1504 1502 1506 1507 1507 1500 1497 1498 1497 1497 1498 1497 1497 1497 1499 1497 1498 1496 1497 1501 1500 1498 1502 1500 1504 1505 1505 1508 1507 1506
1437 1442 1447 1451 1457 1461 1468 1475 1480 1484 1488 1490 1493 1496 1497 1499 1499 1503 1503 1505 1507 1507 1508 1491 1494 1494 1494 1496 1496 1497 1496 1498 1495 1497 1500 1502 1501 1501 1500 1505 1505 1508 1507 1506 1507 1505 1506
1428 1432 1437 1443 1448 1453 1459 1467 1473 1478 1483 1485 1489 1491 1494 1495 1497 1501 1502 1504 1507 1505 1505 1490 1488 1490 1493 1494 1496 1496 1497 1498 1500 1499 1498 1501 1504 1503 1504 1507 1506 1510 1507 1507 1507 1507 1515
1418 1422 1427 1433 1437 1445 1451 1459 1465 1472 1477 1481 1484 1488 1491 1493 1498 1499 1501 1504 1503 1499 1487 1489 1487 1487 1488 1492 1494 1494 1494 1495 1495 1504 1503 1502 1504 1506 1507 1506 1510 1506 1505 1515 1523 1521 1518
1408 1412 1418 1422 1428 1436 1443 1451 1459 1466 1471 1477 1480 1483 1486 1488 1495 1496 1499 1502 1496 1480 1482 1483 1483 1484 1489 1490 1493 1494 1494 1495 1497 1495 1496 1500 1513 1504 1506 1504 1501 1505 1505 1515 1529 1523 1514
1397 1404 1408 1414 1419 1427 1435 1443 1451 1459 1465 1471 1476 1478 1482 1485 1493 1496 1498 1494 1480 1476 1476 1480 1483 1485 1488 1489 1490 1492 1493 1490 1495 1495 1494 1500 1505 1506 1508 1506 1507 1509 1510 1513 1521 1538 1526
1388 1394 1400 1405 1410 1418 1426 1435 1443 1452 1460 1467 1471 1475 1477 1483 1491 1495 1493 1483 1474 1474 1476 1477 1481 1478 1485 1486 1490 1490 1492 1495 1495 1496 1496 1496 1508 1505 1508 1508 1510 1506 1510 1518 1516 1532 1526
1379 1385 1391 1396 1402 1407 1417 1426 1435 1445 1454 1463 1468 1474 1473 1479 1490 1494 1482 1476 1473 1472 1475 1476 1474 1481 1479 1486 1485 1487 1490 1496 1496 1496 1495 1493 1496 1510 1508 1505 1502 1513 1511 1514 1511 1518 1519
1369 1376 1382 1388 1394 1400 1410 1418 1429 1438 1449 1457 1463 1463 1465 1473 1488 1482 1475 1471 1471 1469 1473 1474 1473 1475 1479 1482 1486 1487 1489 1488 1495 1494 1493 1498 1497 1506 1502 1507 1507 1504 1503 1505 1512 1519 1524
1360 1366 1373 1379 1386 1390 1401 1408 1421 1430 1437 1448 1455 1458 1464 1469 1472 1475 1473 1470 1468 1467 1468 1471 1471 1473 1477 1480 1488 1487 1488 1495 1495 1495 1493 1497 1500 1507 1508 1507 1507 1505 1503 1504 1512 1514 1517
1351 1357 1364 1370 1377 1384 1391 1401 1414 1423 1433 1446 1449 1449 1459 1466 1468 1465 1467 1466 1465 1466 1466 1469 1470 1474 1476 1480 1484 1488 1489 1495 1496 1497 1497 1498 1497 1495 1499 1493 1494 1503 1502 1504 1503 1514 1504
1342 1348 1355 1363 1368 1377 1384 1395 1409 1419 1430 1438 1438 1434 1438 1449 1460 1461 1463 1461 1460 1464 1465 1467 1468 1467 1470 1481 1483 1486 1488 1494 1497 1498 1498 1497 1497 1499 1502 1503 1502 1499 1499 1502 1502 1498 1506
1333 1340 1347 1355 1360 1366 1382 1390 1403 1415 1426 1431 1429 1429 1436 1442 1453 1459 1459 1458 1456 1462 1462 1462 1462 1467 1469 1472 1472 1479 1481 1486 1486 1496 1495 1498 1499 1503 1505 1508 1507 1506 1499 1498 1497 1494 1493
1326 1333 1340 1345 1349 1361 1370 1382 1397 1408 1417 1422 1423 1424 1431 1444 1448 1453 1453 1454 1455 1457 1466 1465 1463 1466 1471 1475 1477 1478 1483 1484 1485 1489 1494 1497 1500 1504 1504 1511 1510 1513 1494 1490 1488 1488 1490
1320 1327 1334 1339 1347 1358 1367 1378 1392 1402 1410 1420 1420 1422 1427 1441 1444 1446 1452 1453 1455 1456 1459 1466 1468 1467 1478 1478 1480 1484 1487 1490 1492 1495 1496 1499 1500 1510 1509 1520 1515 1482 1488 1488 1485 1482 1483
1314 1321 1325 1334 1345 1355 1364 1377 1389 1400 1409 1414 1416 1419 1423 1439 1440 1447 1450 1452 1457 1460 1462 1466 1471 1472 1476 1479 1481 1487 1492 1496 1498 1499 1499 1498 1501 1515 1513 1505 1491 1480 1488 1490 1490 1482 1481
1307 1313 1323 1333 1343 1355 1367 1378 1388 1397 1406 1411 1414 1417 1421 1428 1439 1440 1448 1450 1454 1458 1465 1471 1473 1475 1477 1480 1482 1488 1489 1484 1493 1498 1502 1502 1502 1500 1516 1508 1504 1485 1490 1491 1491 1487 1483
1304 1315 1321 1333 1344 1355 1366 1376 1385 1394 1403 1410 1414 1417 1419 1425 1434 1438 1441 1447 1451 1455 1460 1470 1475 1477 1477 1481 1485 1485 1483 1488 1488 1496 1507 1505 1509 1507 1509 1506 1493 1485 1490 1492 1492 1491 1486
1304 1316 1326 1336 1346 1356 1365 1374 1383 1393 1404 1410 1413 1414 1418 1424 1433 1435 1438 1442 1447 1451 1455 1467 1472 1475 1478 1481 1482 1483 1486 1487 1486 1486 1492 1492 1499 1505 1511 1508 1502 1488 1491 1491 1487 1486 1487
1312 1322 1331 1340 1348 1356 1364 1373 1382 1394 1404 1410 1414 1415 1418 1422 1432 1435 1437 1439 1442 1446 1451 1459 1459 1462 1466 1472 1481 1487 1491 1498 1487 1483 1491 1491 1486 1486 1489 1483 1485 1487 1486 1487 1487 1487 1487